Weather History for Paris / Charles De Gaulle, France

Change the Weather History Date:

Friday, December 7, 2012

  Actual Average Record
Temperature  
Mean Temperature 36 °F -  
Max Temperature 41 °F 43 °F 62 °F (2000)
Min Temperature 32 °F 34 °F 28 °F (2003)
Degree Days  
Heating Degree Days 28    
Moisture  
Dew Point 33 °F    
Average Humidity 92    
Maximum Humidity 100    
Minimum Humidity 81    
Precipitation  
Precipitation 0.00 in - - ()
Sea Level Pressure  
Sea Level Pressure 29.61 in    
Wind  
Wind Speed 14 mph ()    
Max Wind Speed 22 mph    
Max Gust Speed 32 mph    
Visibility 5.0 miles    
Events Rain , Snow    
Averages and records for this station are not official NWS values.
T = Trace of Precipitation, MM = Missing Value Source: Averaged Metar Reports

Daily Weather History Graph

Daily Weather History Graph

Search for Another Location

Airport:

Trip Planner

Search our weather history database for the weather conditions in past years. The results will help you decide how hot, cold, wet, or windy it might be!

Date:

Astronomy

Dec. 07, 2012 Rise Set
Actual Time 8:30 AM CET 4:52 PM CET
Civil Twilight 7:53 AM CET 5:29 PM CET
Nautical Twilight 7:12 AM CET 6:09 PM CET
Astronomical Twilight 6:34 AM CET 6:48 PM CET
Moon 1:01 AM CET (12/7) 1:09 PM CET (12/7)
Length of Visible Light 9h 36m
Length of Day
8h 22m
Last Quarter, 41% of the Moon is Illuminated
Dec 7
Last Quarter
Dec 13
New
Dec 20
First Quarter
Dec 28
Full
Jan 5
Last Quarter

Hourly Weather History & Observations

Time (CET) Temp. Windchill Dew Point Humidity Pressure Visibility Wind Dir Wind Speed Gust Speed Precip Events Conditions
12:00 AM 35.6 °F 25.5 °F 30.2 °F 81% 29.86 in 6.2 mi South 17.3 mph - N/A   Mostly Cloudy
12:30 AM 35.6 °F 26.2 °F 30.2 °F 81% 29.83 in - South 15.0 mph - N/A   Clear
1:00 AM 35.6 °F 25.9 °F 30.2 °F 81% 29.83 in 6.2 mi SSW 16.1 mph - N/A   Overcast
1:30 AM 35.6 °F 26.6 °F 30.2 °F 81% 29.80 in 6.2 mi SSW 13.8 mph - N/A   Mostly Cloudy
2:00 AM 35.6 °F 25.5 °F 30.2 °F 81% 29.77 in 6.2 mi South 17.3 mph - N/A   Mostly Cloudy
2:30 AM 35.6 °F 25.5 °F 30.2 °F 81% 29.77 in 6.2 mi SSW 17.3 mph - N/A Rain , Snow Light Rain
3:00 AM 35.6 °F 24.5 °F 32.0 °F 87% 29.74 in 4.3 mi SSW 20.7 mph - N/A Snow Light Snow
3:30 AM 33.8 °F 22.8 °F 32.0 °F 93% 29.71 in 1.9 mi SSW 18.4 mph - N/A Snow Light Snow
4:00 AM 33.8 °F 22.2 °F 32.0 °F 93% 29.68 in 0.7 mi South 20.7 mph - N/A Snow Snow
4:30 AM 32.0 °F 20.1 °F 30.2 °F 93% 29.65 in 0.5 mi South 19.6 mph 32.2 mph N/A Snow Snow
5:00 AM 32.0 °F 20.8 °F 32.0 °F 100% 29.62 in 0.7 mi South 17.3 mph - N/A Snow Snow
5:30 AM 32.0 °F 20.5 °F 32.0 °F 100% 29.62 in 1.1 mi SSW 18.4 mph - N/A Snow Light Snow
6:00 AM 32.0 °F 20.8 °F 32.0 °F 100% 29.59 in 0.6 mi SSW 17.3 mph - N/A Snow Light Snow
6:30 AM 32.0 °F 20.8 °F 32.0 °F 100% 29.59 in 0.6 mi SSW 17.3 mph - N/A Snow Light Snow
7:00 AM 32.0 °F 21.6 °F 32.0 °F 100% 29.56 in 0.6 mi SSW 15.0 mph - N/A Snow Light Snow
7:30 AM 32.0 °F 21.6 °F 32.0 °F 100% 29.56 in 6.2 mi SSW 15.0 mph - N/A Snow Light Snow
7:35 AM 32.0 °F 21.2 °F 32.0 °F 100% 29.56 in 6.2 mi SSW 16.1 mph - N/A Snow Light Snow
7:38 AM 32.0 °F 21.2 °F 32.0 °F 100% 29.56 in 6.2 mi SSW 16.1 mph - N/A   Mostly Cloudy
8:00 AM 32.0 °F 23.0 °F 32.0 °F 100% 29.56 in 6.2 mi SSW 11.5 mph - N/A   Mostly Cloudy
8:16 AM 32.0 °F 23.0 °F 32.0 °F 100% 29.56 in 6.2 mi SSW 11.5 mph - N/A   Overcast
8:30 AM 32.0 °F 24.2 °F 32.0 °F 100% 29.56 in 6.2 mi SSW 9.2 mph - N/A   Overcast
9:00 AM 33.8 °F 25.8 °F 32.0 °F 93% 29.56 in 6.2 mi SSW 10.4 mph - N/A   Mostly Cloudy
9:04 AM 33.8 °F 25.8 °F 32.0 °F 93% 29.56 in 6.2 mi SSW 10.4 mph - N/A   Mostly Cloudy
9:30 AM 33.8 °F 26.4 °F 32.0 °F 93% 29.53 in 6.2 mi SW 9.2 mph - N/A   Mostly Cloudy
10:00 AM 33.8 °F 25.3 °F 33.8 °F 100% 29.53 in 6.2 mi SSW 11.5 mph - N/A   Mostly Cloudy
10:30 AM 35.6 °F 28.0 °F 33.8 °F 93% 29.53 in 6.2 mi SW 10.4 mph - N/A   Mostly Cloudy
11:00 AM 35.6 °F 27.5 °F 33.8 °F 93% 29.53 in 6.2 mi SW 11.5 mph - N/A   Mostly Cloudy
11:30 AM 35.6 °F 28.0 °F 33.8 °F 93% 29.53 in 5.0 mi SW 10.4 mph - N/A   Mostly Cloudy
12:00 PM 35.6 °F 27.1 °F 33.8 °F 93% 29.53 in 3.1 mi WSW 12.7 mph - N/A Rain Rain
12:30 PM 35.6 °F 27.5 °F 33.8 °F 93% 29.53 in 3.7 mi WSW 11.5 mph - N/A Rain Light Rain
1:00 PM 35.6 °F 28.6 °F 33.8 °F 93% 29.53 in 6.2 mi West 9.2 mph - N/A   Mostly Cloudy
1:30 PM 35.6 °F 29.9 °F 33.8 °F 93% 29.53 in 6.2 mi WSW 6.9 mph - N/A   Mostly Cloudy
2:00 PM 35.6 °F 29.2 °F 33.8 °F 93% 29.53 in 6.2 mi WSW 8.1 mph - N/A   Mostly Cloudy
2:30 PM 35.6 °F 27.5 °F 33.8 °F 93% 29.53 in 6.2 mi SW 11.5 mph - N/A   Mostly Cloudy
3:00 PM 35.6 °F 26.6 °F 33.8 °F 93% 29.53 in 6.2 mi WSW 13.8 mph - N/A Rain Light Rain
3:30 PM 37.4 °F 29.3 °F 35.6 °F 93% 29.53 in 3.7 mi WSW 12.7 mph - N/A Rain Light Rain
4:00 PM 37.4 °F 28.9 °F 35.6 °F 93% 29.53 in 6.2 mi West 13.8 mph - N/A   Mostly Cloudy
4:30 PM 37.4 °F 28.9 °F 35.6 °F 93% 29.53 in 6.2 mi West 13.8 mph - N/A   Mostly Cloudy
5:00 PM 39.2 °F 29.8 °F 37.4 °F 93% 29.53 in 6.2 mi West 18.4 mph - N/A   Mostly Cloudy
5:30 PM 41.0 °F 31.9 °F 35.6 °F 81% 29.53 in 6.2 mi West 19.6 mph - N/A   Mostly Cloudy
6:00 PM 41.0 °F 31.4 °F 35.6 °F 81% 29.56 in 6.2 mi WNW 21.9 mph - N/A   Mostly Cloudy
6:30 PM 41.0 °F 31.6 °F 35.6 °F 81% 29.56 in 6.2 mi WNW 20.7 mph - N/A Rain Light Rain
7:00 PM 39.2 °F 29.3 °F 35.6 °F 87% 29.59 in 3.1 mi NW 20.7 mph - N/A Rain Light Rain
7:30 PM 37.4 °F 27.8 °F 33.8 °F 87% 29.62 in 3.1 mi NNW 17.3 mph - N/A Rain Rain
8:00 PM 37.4 °F 27.5 °F 35.6 °F 93% 29.62 in 4.3 mi NNW 18.4 mph - N/A Rain Light Rain
8:30 PM 37.4 °F 27.5 °F 35.6 °F 93% 29.65 in 6.2 mi NW 18.4 mph - N/A   Mostly Cloudy
9:00 PM 37.4 °F 27.5 °F 35.6 °F 93% 29.65 in 5.6 mi NNW 18.4 mph - N/A Rain Light Rain
9:30 PM 37.4 °F 28.9 °F 35.6 °F 93% 29.68 in 5.6 mi NNW 13.8 mph - N/A Rain Light Rain
10:00 PM 37.4 °F 29.3 °F 35.6 °F 93% 29.71 in 6.2 mi NNW 12.7 mph - N/A Rain Light Rain
10:30 PM 37.4 °F 29.3 °F 35.6 °F 93% 29.71 in 6.2 mi NNW 12.7 mph - N/A   Mostly Cloudy
11:00 PM 37.4 °F 31.4 °F 35.6 °F 93% 29.74 in 6.2 mi NNW 8.1 mph - N/A   Mostly Cloudy
11:30 PM 37.4 °F 32.1 °F 35.6 °F 93% 29.77 in 6.2 mi Variable 6.9 mph - N/A   Mostly Cloudy